Hinckley, MN

12:06 AM CST on December 11, 2019 (GMT -0600)
Hinckley

Weather History for K04W - October, 2019

Change the Weather History Date:

Sunday, October 20, 2019

  Actual Average (WUND) Record (WUND)
Temperature  
Mean Temperature 46 °F -  
Max Temperature 62 °F - - (-1)
Min Temperature 30 °F - - (-1)
Degree Days  
Heating Degree Days 19    
Moisture  
Dew Point 34 °F    
Average Humidity 64    
Maximum Humidity 100    
Minimum Humidity 32    
Precipitation  
Precipitation 0.00 in - - ()
Sea Level Pressure  
Sea Level Pressure 29.82 in    
Wind  
Wind Speed 2 mph (SE)    
Max Wind Speed 9 mph    
Max Gust Speed -    
Visibility 10 miles    
Events      
Averages and records for this station are not official NWS values.
T = Trace of Precipitation, MM = Missing Value Source: NWS Daily Summary

Daily Weather History Graph

Daily Weather History Graph

Search for Another Location

Airport or City:

Astronomy

Oct. 20, 2019 Rise Set
Actual Time 7:35 AM CDT 6:17 PM CDT
Civil Twilight 7:04 AM CDT 6:47 PM CDT
Nautical Twilight 6:29 AM CDT 7:22 PM CDT
Astronomical Twilight 5:55 AM CDT 7:56 PM CDT
Moon 11:13 PM CDT (10/20) 2:16 PM CDT (10/20)
Length of Visible Light 11h 42m
Length of Day
10h 41m
Waning Gibbous, 59% of the Moon is Illuminated
Oct 20
Waning Gibbous
Oct 21
Last Quarter
Oct 27
New
Nov 4
First Quarter
Nov 12
Full

Hourly Weather History & Observations

Time (CDT) Temp. Dew Point Humidity Pressure Visibility Wind Dir Wind Speed Gust Speed Precip Events Conditions
12:15 AM 35.6 °F 33.8 °F 93% 29.72 in 10.0 mi Calm Calm - N/A   Clear
12:16 AM 35.6 °F 33.8 °F 93% 29.72 in 10.0 mi Calm Calm - N/A   Clear
12:35 AM 35.6 °F 33.8 °F 93% 29.72 in 10.0 mi Calm Calm - N/A   Clear
12:39 AM 35.6 °F 33.8 °F 93% 29.72 in 10.0 mi Calm Calm - N/A   Clear
12:57 AM 33.8 °F 33.8 °F 100% 29.72 in 10.0 mi Calm Calm - N/A   Clear
1:15 AM 33.8 °F 32.0 °F 93% 29.73 in 10.0 mi Calm Calm - N/A   Clear
1:35 AM 33.8 °F 33.8 °F 100% 29.73 in 10.0 mi Calm Calm - N/A   Clear
1:36 AM 33.8 °F 33.8 °F 100% 29.73 in 10.0 mi Calm Calm - N/A   Clear
1:55 AM 33.8 °F 33.8 °F 100% 29.73 in 10.0 mi Calm Calm - N/A   Clear
2:18 AM 33.8 °F 32.0 °F 93% 29.73 in 10.0 mi Calm Calm - N/A   Clear
2:37 AM 33.8 °F 32.0 °F 93% 29.74 in 10.0 mi Calm Calm - N/A   Clear
2:56 AM 33.8 °F 32.0 °F 93% 29.74 in 10.0 mi Calm Calm - N/A   Clear
3:16 AM 32.0 °F 32.0 °F 100% 29.75 in 10.0 mi Calm Calm - N/A   Clear
3:35 AM 32.0 °F 32.0 °F 100% 29.75 in 10.0 mi Calm Calm - N/A   Clear
3:39 AM 32.0 °F 32.0 °F 100% 29.75 in 10.0 mi Calm Calm - N/A   Clear
3:57 AM 32.0 °F 32.0 °F 100% 29.75 in 10.0 mi Calm Calm - N/A   Clear
4:15 AM 32.0 °F 32.0 °F 100% 29.76 in 10.0 mi Calm Calm - N/A   Clear
4:36 AM 32.0 °F 32.0 °F 100% 29.76 in 10.0 mi Calm Calm - N/A   Clear
4:55 AM 32.0 °F 32.0 °F 100% 29.77 in 10.0 mi Calm Calm - N/A   Clear
4:56 AM 32.0 °F 32.0 °F 100% 29.77 in 10.0 mi Calm Calm - N/A   Clear
5:18 AM 32.0 °F 32.0 °F 100% 29.78 in 10.0 mi Calm Calm - N/A   Clear
5:37 AM 32.0 °F 32.0 °F 100% 29.78 in 10.0 mi Calm Calm - N/A   Clear
5:56 AM 30.2 °F 30.2 °F 100% 29.79 in 10.0 mi Calm Calm - N/A   Clear
6:15 AM 32.0 °F 32.0 °F 100% 29.79 in 10.0 mi Calm Calm - N/A   Clear
6:35 AM 30.2 °F 30.2 °F 100% 29.80 in 10.0 mi Calm Calm - N/A   Clear
6:40 AM 30.2 °F 30.2 °F 100% 29.81 in 10.0 mi Calm Calm - N/A   Clear
6:57 AM 30.2 °F 30.2 °F 100% 29.81 in 10.0 mi Calm Calm - N/A   Clear
7:15 AM 30.2 °F 30.2 °F 100% 29.81 in 10.0 mi Calm Calm - N/A   Clear
7:36 AM 30.2 °F 30.2 °F 100% 29.81 in 10.0 mi Calm Calm - N/A   Clear
7:55 AM 30.2 °F 30.2 °F 100% 29.82 in 10.0 mi Calm Calm - N/A   Clear
7:56 AM 30.2 °F 30.2 °F 100% 29.82 in 10.0 mi Calm Calm - N/A   Clear
8:18 AM 32.0 °F 32.0 °F 100% 29.83 in 10.0 mi Calm Calm - N/A   Clear
8:37 AM 32.0 °F 32.0 °F 100% 29.84 in 10.0 mi Calm Calm - N/A   Clear
8:56 AM 33.8 °F 33.8 °F 100% 29.84 in 10.0 mi Calm Calm - N/A   Clear
9:15 AM 37.4 °F 35.6 °F 93% 29.84 in 10.0 mi Calm Calm - N/A   Clear
9:35 AM 41.0 °F 35.6 °F 81% 29.86 in 10.0 mi Calm Calm - N/A   Clear
9:39 AM 41.0 °F 35.6 °F 81% 29.86 in 10.0 mi Calm Calm - N/A   Clear
9:57 AM 44.6 °F 35.6 °F 71% 29.86 in 10.0 mi Calm Calm - N/A   Clear
10:15 AM 46.4 °F 37.4 °F 71% 29.86 in 10.0 mi Calm Calm - N/A   Clear
10:35 AM 48.2 °F 37.4 °F 66% 29.86 in 10.0 mi Calm Calm - N/A   Clear
10:36 AM 48.2 °F 37.4 °F 66% 29.86 in 10.0 mi Calm Calm - N/A   Clear
10:55 AM 51.8 °F 37.4 °F 58% 29.86 in 10.0 mi Calm Calm - N/A   Clear
10:56 AM 51.8 °F 37.4 °F 58% 29.86 in 10.0 mi Calm Calm - N/A   Clear
11:18 AM 51.8 °F 37.4 °F 58% 29.86 in 10.0 mi Calm Calm - N/A   Clear
11:36 AM 55.4 °F 37.4 °F 51% 29.86 in 10.0 mi Calm Calm - N/A   Clear
11:56 AM 55.4 °F 35.6 °F 47% 29.86 in 10.0 mi SSW 4.6 mph - N/A   Clear
12:15 PM 57.2 °F 35.6 °F 44% 29.86 in 10.0 mi SSW 4.6 mph - N/A   Clear
12:16 PM 57.2 °F 37.4 °F 48% 29.86 in 10.0 mi SSW 4.6 mph - N/A   Clear
12:35 PM 59.0 °F 35.6 °F 42% 29.86 in 10.0 mi South 3.5 mph - N/A   Clear
12:57 PM 59.0 °F 35.6 °F 42% 29.87 in 10.0 mi South 4.6 mph - N/A   Clear
1:16 PM 59.0 °F 35.6 °F 42% 29.86 in 10.0 mi South 3.5 mph - N/A   Clear
1:35 PM 60.8 °F 33.8 °F 36% 29.86 in 10.0 mi SSW 3.5 mph - N/A   Clear
1:36 PM 60.8 °F 33.8 °F 36% 29.86 in 10.0 mi SSW 4.6 mph - N/A   Clear
1:55 PM 62.6 °F 35.6 °F 37% 29.85 in 10.0 mi South 4.6 mph - N/A   Clear
1:56 PM 62.6 °F 33.8 °F 34% 29.85 in 10.0 mi South 3.5 mph - N/A   Clear
2:18 PM 62.6 °F 33.8 °F 34% 29.85 in 10.0 mi South 6.9 mph - N/A   Clear
2:37 PM 62.6 °F 33.8 °F 34% 29.85 in 10.0 mi SSW 8.1 mph - N/A   Clear
2:55 PM 62.6 °F 32.0 °F 32% 29.84 in 10.0 mi South 6.9 mph - N/A   Clear
2:56 PM 62.6 °F 32.0 °F 32% 29.84 in 10.0 mi South 5.8 mph - N/A   Clear
3:15 PM 62.6 °F 32.0 °F 32% 29.84 in 10.0 mi South 4.6 mph - N/A   Clear
3:16 PM 62.6 °F 32.0 °F 32% 29.84 in 10.0 mi South 4.6 mph - N/A   Clear
3:35 PM 62.6 °F 32.0 °F 32% 29.84 in 10.0 mi Calm Calm - N/A   Clear
3:39 PM 62.6 °F 33.8 °F 34% 29.84 in 10.0 mi SSE 4.6 mph - N/A   Clear
3:58 PM 62.6 °F 32.0 °F 32% 29.84 in 10.0 mi South 5.8 mph - N/A   Clear
4:15 PM 62.6 °F 33.8 °F 34% 29.85 in 10.0 mi South 4.6 mph - N/A   Clear
4:35 PM 62.6 °F 33.8 °F 34% 29.85 in 10.0 mi Calm Calm - N/A   Clear
4:36 PM 62.6 °F 33.8 °F 34% 29.85 in 10.0 mi Calm Calm - N/A   Clear
4:55 PM 60.8 °F 32.0 °F 34% 29.85 in 10.0 mi SE 4.6 mph - N/A   Clear
4:56 PM 60.8 °F 32.0 °F 34% 29.85 in 10.0 mi SE 3.5 mph - N/A   Clear
5:18 PM 60.8 °F 32.0 °F 34% 29.84 in 10.0 mi ESE 3.5 mph - N/A   Clear
5:36 PM 59.0 °F 32.0 °F 36% 29.84 in 10.0 mi East 4.6 mph - N/A   Clear
5:56 PM 59.0 °F 33.8 °F 39% 29.83 in 10.0 mi East 3.5 mph - N/A   Clear
6:15 PM 57.2 °F 32.0 °F 38% 29.83 in 10.0 mi East 3.5 mph - N/A   Scattered Clouds
6:16 PM 57.2 °F 32.0 °F 38% 29.83 in 10.0 mi East 3.5 mph - N/A   Scattered Clouds
6:35 PM 57.2 °F 32.0 °F 38% 29.83 in 10.0 mi East 3.5 mph - N/A   Scattered Clouds
6:39 PM 57.2 °F 32.0 °F 38% 29.83 in 10.0 mi East 3.5 mph - N/A   Clear
6:57 PM 57.2 °F 32.0 °F 38% 29.84 in 10.0 mi East 4.6 mph - N/A   Clear
7:15 PM 55.4 °F 32.0 °F 41% 29.84 in 10.0 mi East 4.6 mph - N/A   Clear
7:35 PM 55.4 °F 32.0 °F 41% 29.84 in 10.0 mi East 4.6 mph - N/A   Scattered Clouds
7:36 PM 55.4 °F 32.0 °F 41% 29.84 in 10.0 mi East 5.8 mph - N/A   Scattered Clouds
7:55 PM 55.4 °F 33.8 °F 44% 29.84 in 10.0 mi East 4.6 mph - N/A   Scattered Clouds
7:59 PM 55.4 °F 33.8 °F 44% 29.84 in 10.0 mi ESE 4.6 mph - N/A   Mostly Cloudy
8:16 PM 55.4 °F 33.8 °F 44% 29.84 in 10.0 mi East 6.9 mph - N/A   Mostly Cloudy
8:36 PM 55.4 °F 33.8 °F 44% 29.84 in 10.0 mi ESE 6.9 mph - N/A   Overcast
8:55 PM 55.4 °F 35.6 °F 47% 29.84 in 10.0 mi East 8.1 mph - N/A   Mostly Cloudy
8:56 PM 55.4 °F 35.6 °F 47% 29.84 in 10.0 mi East 9.2 mph - N/A   Mostly Cloudy
9:15 PM 55.4 °F 35.6 °F 47% 29.84 in 10.0 mi ESE 4.6 mph - N/A   Mostly Cloudy
9:19 PM 55.4 °F 35.6 °F 47% 29.84 in 10.0 mi ESE 5.8 mph - N/A   Mostly Cloudy
9:37 PM 55.4 °F 35.6 °F 47% 29.85 in 10.0 mi ESE 3.5 mph - N/A   Overcast
9:55 PM 55.4 °F 35.6 °F 47% 29.85 in 10.0 mi East 5.8 mph - N/A   Overcast
10:15 PM 55.4 °F 35.6 °F 47% 29.85 in 10.0 mi East 5.8 mph - N/A   Overcast
10:16 PM 55.4 °F 35.6 °F 47% 29.85 in 10.0 mi East 5.8 mph - N/A   Overcast
10:35 PM 53.6 °F 35.6 °F 51% 29.84 in 10.0 mi East 8.1 mph - N/A   Overcast
10:36 PM 53.6 °F 35.6 °F 51% 29.84 in 10.0 mi East 8.1 mph - N/A   Overcast
10:57 PM 53.6 °F 35.6 °F 51% 29.83 in 10.0 mi ENE 8.1 mph - N/A   Overcast
11:16 PM 53.6 °F 35.6 °F 51% 29.82 in 10.0 mi East 6.9 mph - N/A   Scattered Clouds
11:35 PM 53.6 °F 35.6 °F 51% 29.82 in 10.0 mi East 6.9 mph - N/A   Clear
11:36 PM 53.6 °F 35.6 °F 51% 29.82 in 10.0 mi East 6.9 mph - N/A   Clear
11:55 PM 53.6 °F 35.6 °F 51% 29.81 in 10.0 mi East 8.1 mph - N/A   Clear